Theta_e
324 324 325 325 326 327 327 325 325 325 323 322 321 320 322 319 322 317 307 313 318 330 324 312 311 311 311 311 311 309 298 296 298 297 299 304 300 303 304 305 307 310 314 321 327
323 324 324 324 325 326 327 326 325 325 323 322 322 321 322 319 313 308 317 318 322 328 315 308 306 308 305 306 306 302 297 300 303 300 301 303 302 302 300 304 304 309 320 326 326
322 323 323 324 325 325 326 326 325 325 324 323 321 321 320 318 307 308 320 320 321 324 318 314 308 307 303 305 303 302 298 303 301 303 305 303 301 303 300 299 304 306 317 322 323
322 322 322 323 324 325 325 325 325 325 324 324 321 321 319 315 298 314 321 322 322 321 316 310 305 302 301 300 304 299 300 302 303 302 303 302 303 300 300 299 305 309 319 321 321
322 321 322 322 323 324 325 325 324 324 325 323 323 322 316 305 307 320 322 320 319 316 312 307 302 303 300 301 302 299 300 302 302 300 301 304 301 300 300 302 303 309 318 318 319
321 320 321 322 322 323 324 325 325 324 324 322 321 320 311 299 314 321 317 317 313 311 311 308 304 305 301 301 300 302 301 300 301 300 300 300 298 298 300 302 302 304 310 316 318
320 320 320 321 321 323 322 323 324 323 323 322 320 316 306 304 313 320 319 317 315 311 306 308 308 304 304 300 303 301 296 298 298 300 298 298 296 296 299 301 300 301 304 310 315
320 320 320 320 320 322 322 322 322 323 323 322 321 313 301 313 312 315 318 316 316 313 308 308 308 304 302 301 299 297 296 291 297 298 297 297 292 298 299 297 298 299 300 305 312
318 319 319 319 319 320 321 321 320 322 322 322 314 310 297 312 306 310 313 309 309 309 307 306 305 301 300 294 292 294 289 291 292 298 297 293 291 295 297 296 295 297 299 304 306
317 319 318 318 319 319 320 320 320 320 319 317 312 303 303 300 307 308 310 309 305 304 302 301 300 296 295 292 286 289 290 292 290 294 293 291 291 294 296 297 295 296 297 300 301
318 318 318 318 319 320 318 313 306 304 308 300 300 300 300 305 309 305 308 306 304 301 294 297 293 290 293 295 295 294 291 290 291 294 292 292 291 294 296 296 295 296 296 298 300
317 318 318 318 319 319 315 305 304 306 298 303 301 303 305 305 299 302 307 299 298 293 297 294 290 296 297 296 294 292 291 289 291 294 292 291 291 294 295 295 296 298 298 298 300
314 317 317 318 318 315 310 307 311 309 296 298 300 300 302 304 299 299 303 300 296 294 294 291 294 298 295 292 291 291 291 289 290 291 291 287 286 291 294 296 294 293 294 296 298
315 316 317 317 312 312 307 311 310 308 288 290 295 299 303 303 297 304 303 300 297 293 295 294 296 294 292 291 292 288 292 293 291 287 283 288 279 286 289 290 293 294 295 296 298
314 316 316 317 310 307 310 311 312 305 277 292 294 303 304 298 298 298 303 299 294 294 294 290 291 292 291 292 294 291 294 293 291 288 286 285 281 285 289 288 291 295 297 297 299
313 315 315 313 311 311 314 313 308 288 279 288 294 294 295 297 297 298 298 300 299 294 293 291 293 293 293 293 294 295 293 292 290 288 279 286 283 283 287 289 292 295 297 298 298
307 315 313 313 305 313 314 306 286 280 292 286 288 293 293 292 294 294 293 291 289 286 286 289 290 293 294 290 292 292 287 279 278 278 278 283 282 285 288 292 293 294 296 297 298
305 314 312 311 313 314 308 293 279 286 287 292 291 292 289 292 292 292 291 288 292 290 287 284 281 289 293 290 288 289 287 281 276 276 278 280 278 285 289 292 294 297 297 298 297
304 310 307 305 312 314 299 284 283 287 292 289 291 287 288 291 291 291 290 289 291 292 286 285 285 291 292 293 292 288 285 289 281 274 278 280 284 287 290 290 293 295 296 296 297
297 303 298 304 307 308 293 287 289 294 294 292 285 289 285 288 288 289 289 292 292 294 293 290 283 290 290 292 291 289 291 282 283 272 274 279 280 283 286 288 292 294 294 295 296
295 295 297 303 307 300 287 288 292 296 296 291 289 288 288 287 289 288 289 292 294 292 292 291 289 285 289 287 287 286 285 285 287 284 278 275 279 285 290 291 292 294 296 295 296
290 286 297 301 294 294 289 292 296 294 296 294 294 291 289 290 288 288 288 291 296 294 288 292 289 282 285 289 290 288 287 287 282 279 280 281 281 290 289 293 295 295 296 296 297
286 286 297 297 286 288 293 293 296 293 293 294 291 292 292 290 286 289 290 292 294 293 290 292 287 280 282 287 288 286 288 288 287 284 280 277 280 290 290 293 296 296 296 297 297
289 285 287 290 289 291 290 291 291 298 295 297 293 293 291 289 291 289 290 292 293 293 297 295 289 285 281 283 288 284 287 287 287 281 280 282 283 285 291 292 294 295 296 296 297
289 285 285 284 286 289 293 292 290 291 297 298 293 292 290 287 288 288 291 289 292 294 293 292 284 287 287 289 288 287 286 286 285 287 283 285 285 289 291 293 295 295 296 296 296
286 285 287 285 286 289 292 290 290 292 294 293 293 293 291 288 289 287 290 290 288 291 290 291 282 286 283 287 287 285 287 288 288 287 286 286 286 291 294 295 295 296 297 296 296
291 291 289 286 286 286 286 291 290 294 296 296 296 294 292 294 296 295 295 294 293 290 289 289 285 281 276 284 284 279 285 288 288 289 289 285 290 291 292 295 296 296 297 297 297
Wind_Speed
19 18 16 15 17 17 21 19 19 18 20 18 17 11 4 3 2 2 2 0 2 15 11 7 7 9 10 1 2 3 2 5 7 5 7 8 4 4 2 8 4 6 9 17 15
19 16 16 15 15 18 21 20 18 18 19 20 16 11 5 1 3 1 4 7 10 13 10 7 9 9 4 6 3 3 2 7 4 1 8 10 9 6 5 9 6 8 8 13 13
17 16 17 16 14 17 21 20 19 17 17 18 18 11 7 2 2 5 5 8 8 12 6 13 12 9 7 5 4 5 4 2 6 6 11 9 5 8 6 6 10 12 10 11 9
15 17 18 18 15 16 20 21 20 18 17 15 17 11 7 2 11 6 14 13 10 11 9 11 6 8 6 6 7 2 2 5 4 2 5 8 5 4 3 4 6 13 12 11 11
15 18 18 18 15 15 17 21 20 18 18 16 15 14 5 3 6 13 23 16 7 3 4 13 8 5 6 7 7 3 5 4 7 2 5 5 6 5 7 8 8 10 12 11 10
14 17 16 18 17 15 17 17 20 20 18 19 18 12 1 6 3 19 17 15 9 4 5 15 7 8 5 9 8 7 7 7 6 5 4 2 4 4 5 10 9 6 10 10 10
14 17 16 17 17 16 17 17 17 17 21 21 19 5 1 3 8 13 18 12 10 4 8 17 15 5 4 1 3 9 7 6 5 5 3 2 3 5 5 7 9 8 8 9 9
13 17 18 18 18 16 15 16 16 17 18 21 17 5 3 5 6 15 15 13 7 8 16 15 8 8 2 5 2 7 8 6 4 6 3 3 5 6 9 8 9 10 8 8 8
17 20 21 19 19 18 18 17 17 16 14 15 8 4 4 1 11 12 15 19 19 17 8 10 4 6 1 5 4 7 7 6 4 5 5 4 3 3 4 5 7 9 9 9 7
21 22 24 23 22 21 21 19 17 15 13 11 6 6 6 10 7 11 13 12 18 12 6 6 6 5 6 9 14 6 7 7 8 7 1 6 4 6 6 5 8 8 9 9 9
21 20 26 25 26 26 24 14 11 8 18 9 14 6 7 12 6 9 11 10 9 11 17 11 11 16 16 11 7 10 6 8 6 3 4 7 5 8 9 6 6 6 8 9 9
22 26 24 26 28 29 19 11 15 10 15 8 9 18 5 4 6 10 10 9 12 17 20 11 19 12 10 9 9 5 13 6 6 6 3 6 9 7 6 6 9 8 8 8 9
12 27 25 27 29 20 18 15 13 19 8 8 6 15 4 3 6 15 13 10 15 18 21 11 10 10 7 5 7 6 11 6 6 4 2 1 6 8 7 5 4 1 2 4 6
16 31 28 30 19 17 20 9 11 3 7 10 7 8 4 3 2 2 9 5 9 19 17 10 5 9 9 9 8 5 3 9 12 7 4 6 6 5 7 6 5 6 4 6 6
10 29 29 28 14 20 18 6 5 1 8 12 7 3 5 6 12 6 2 3 13 10 7 5 6 8 9 9 7 3 8 8 5 4 3 3 2 4 9 7 7 8 7 7 7
9 31 30 17 9 15 11 9 3 4 7 8 7 9 7 6 5 6 5 4 1 6 7 3 3 1 3 5 6 8 11 8 4 3 1 5 7 5 6 9 8 7 8 9 8
21 33 29 14 13 16 11 6 6 5 12 10 10 14 16 9 8 14 13 6 7 11 8 3 2 2 1 10 3 6 8 3 2 1 6 7 3 8 4 2 9 11 9 8 8
21 28 18 4 12 14 10 10 6 12 11 8 13 17 12 14 5 14 14 10 9 8 10 6 3 7 4 5 9 9 8 7 6 5 4 3 7 7 3 7 8 10 10 8 8
22 11 8 3 7 12 12 16 12 20 9 12 15 18 7 12 9 13 16 19 12 13 8 10 3 3 4 3 7 5 5 3 9 2 5 6 6 2 5 4 7 10 9 8 8
6 4 4 4 2 12 14 16 7 14 14 17 11 13 18 20 9 15 19 15 14 10 4 7 7 2 1 2 3 3 8 4 1 5 4 5 2 6 8 11 10 10 10 9 7
5 7 3 6 4 12 17 13 7 3 17 13 7 9 12 14 12 14 18 12 17 7 5 2 7 2 3 6 8 3 3 2 5 5 6 4 7 2 11 14 13 10 10 10 9
3 4 2 5 12 12 14 19 5 6 4 2 4 4 14 18 15 14 13 6 18 11 8 2 7 5 2 1 3 3 4 6 5 3 2 4 7 3 3 12 12 10 10 9 9
2 2 1 3 14 16 10 18 4 5 5 3 3 2 1 14 7 8 6 2 4 11 12 8 3 6 4 3 2 3 5 3 5 4 5 7 7 4 1 10 10 13 12 10 10
2 1 3 4 4 14 16 20 14 4 5 3 5 4 4 10 4 8 4 4 6 4 8 7 4 8 9 6 9 8 11 9 8 4 5 7 4 4 7 10 10 11 11 11 11
2 3 2 3 3 8 16 14 17 8 1 5 2 4 6 5 6 6 4 3 5 2 4 6 7 6 3 4 6 6 10 9 9 15 9 11 8 7 11 12 14 12 13 13 12
3 2 1 3 3 8 18 9 19 12 9 5 1 7 6 6 7 10 11 6 8 2 7 1 3 6 1 4 5 4 9 16 19 14 9 6 8 7 12 9 13 16 16 16 16
2 2 2 4 3 2 4 16 9 11 4 6 7 6 5 4 5 4 5 7 8 11 12 7 6 4 3 7 6 5 14 17 12 11 20 17 21 6 8 16 17 17 20 21 19
Wind_Direction
204 207 180 190 193 179 173 175 172 165 171 170 167 163 139 86 123 161 157 248 256 21 332 297 243 245 252 169 288 345 324 241 233 174 126 141 117 338 3 113 80 50 18 124 134
204 204 181 177 187 185 177 172 171 163 172 176 163 152 109 45 100 164 129 278 351 352 345 276 228 221 221 173 175 192 247 247 168 102 142 164 145 137 148 125 109 87 83 115 144
208 198 188 177 171 183 181 170 169 168 169 170 169 156 106 7 109 213 141 129 286 328 305 284 287 261 212 136 166 192 234 197 35 34 133 161 154 161 146 177 158 150 144 146 156
210 194 190 179 174 180 183 171 171 172 171 166 170 153 121 23 190 171 137 144 247 306 327 292 265 235 190 174 182 247 56 359 91 349 120 147 107 147 207 102 100 149 149 156 166
214 194 187 174 171 178 176 174 169 169 161 156 150 139 144 205 259 143 145 147 274 269 253 265 259 223 235 187 168 200 119 53 89 105 59 121 149 177 132 110 79 111 145 166 171
220 196 185 170 169 171 167 167 176 175 162 150 147 146 298 195 106 147 143 146 218 46 268 262 250 242 305 203 180 154 137 134 141 103 59 89 82 7 146 137 116 138 161 171 179
221 197 177 168 171 167 165 159 160 163 160 149 148 153 196 235 131 171 164 168 161 170 277 265 262 316 253 121 53 137 115 127 142 163 109 339 121 222 137 138 155 179 184 189 186
221 195 173 173 169 160 154 155 153 143 159 153 150 128 268 265 245 161 165 178 198 190 242 283 293 274 323 107 116 180 138 141 164 146 116 118 260 148 155 160 176 184 192 178 192
220 191 175 169 162 155 154 145 138 132 147 150 141 190 230 299 234 173 190 164 188 195 192 277 277 238 134 178 164 218 163 161 151 221 126 172 122 135 151 188 220 180 188 171 187
212 194 174 168 156 151 142 125 119 126 143 156 177 224 196 215 183 190 186 181 174 151 144 215 226 213 200 205 195 167 173 185 148 186 187 166 227 169 196 201 221 190 190 170 182
199 180 169 165 154 143 130 125 145 168 181 161 170 245 161 215 127 176 180 176 152 157 198 198 208 209 198 204 232 163 208 144 105 70 152 211 225 199 186 183 249 206 177 174 187
201 177 178 159 151 149 150 183 167 134 169 212 171 205 45 135 158 181 163 162 188 181 187 175 220 203 196 198 237 257 183 150 49 112 111 204 237 246 227 191 198 204 215 188 135
256 172 173 159 153 153 172 193 184 143 149 211 225 194 178 171 175 172 178 212 184 188 198 188 188 199 173 165 173 243 174 144 135 128 264 334 268 215 210 172 137 189 123 89 93
221 169 165 154 155 164 189 184 181 60 145 161 192 174 152 215 158 128 204 216 186 198 199 200 212 181 157 182 177 163 66 126 125 142 198 167 265 200 157 181 190 186 188 160 120
220 160 163 169 142 176 181 160 95 334 168 146 150 139 172 199 134 213 163 238 198 165 160 181 159 167 171 184 181 154 115 120 133 144 120 223 99 259 124 185 195 172 158 117 103
270 162 165 181 144 163 185 103 122 219 201 154 143 152 151 205 183 121 173 236 291 119 59 83 300 151 125 55 113 139 96 80 76 112 322 194 158 252 182 196 149 133 146 134 124
325 164 166 172 160 163 143 151 166 188 140 165 175 161 170 166 154 173 178 192 156 146 159 121 69 24 160 85 119 145 139 115 119 208 210 336 104 242 190 94 144 144 143 130 141
337 157 171 90 159 159 159 176 189 184 179 147 155 155 176 152 185 185 174 179 224 190 154 154 189 174 185 169 172 190 168 146 169 171 199 339 221 246 72 76 92 120 133 137 117
336 153 133 56 173 156 168 185 203 169 153 142 136 155 152 180 132 176 186 196 200 209 155 170 86 50 36 4 136 212 220 102 104 31 76 201 255 22 143 126 128 130 140 149 139
313 143 93 333 283 168 191 192 202 165 122 144 162 169 173 179 161 184 182 203 202 205 70 161 108 333 310 310 81 175 146 85 17 126 215 241 224 223 208 191 172 166 162 148 141
309 125 57 291 193 178 197 188 155 90 137 171 144 174 168 174 181 185 185 175 194 159 113 69 108 174 157 215 162 146 174 199 148 145 162 145 253 296 200 181 176 168 158 147 144
321 117 345 295 163 194 199 183 130 144 52 225 117 137 178 174 182 190 185 185 184 142 148 59 107 136 180 43 7 15 177 168 142 223 80 137 272 318 337 159 158 165 145 144 142
17 48 307 332 179 187 182 193 129 143 161 156 97 109 189 167 165 174 144 307 149 157 161 185 122 99 21 346 28 215 172 219 110 84 194 139 255 311 54 132 156 155 152 148 139
323 118 27 42 325 178 180 194 181 55 153 137 107 102 127 152 51 166 114 18 5 123 130 113 144 150 181 194 134 187 194 190 171 138 180 218 187 217 174 160 157 154 149 145 149
347 77 337 151 121 185 191 192 186 160 275 152 109 189 156 135 138 158 112 99 20 85 113 158 185 179 154 126 143 163 176 168 202 215 182 223 218 192 193 180 172 154 156 158 160
142 330 95 21 73 170 189 209 195 178 152 184 195 182 204 142 177 172 159 155 175 177 164 261 212 154 101 70 59 141 174 184 208 220 265 258 262 185 190 150 164 171 168 171 172
9 31 337 335 92 112 188 195 204 178 167 52 158 128 148 114 81 60 110 126 144 153 178 149 118 84 228 121 87 350 209 189 205 211 213 227 234 160 173 182 179 176 182 183 176